Wind_Speed
25 26 27 26 25 25 25 25 24 23 23 22 22 22 21 19 19 19 19 17 16 15 16 15 15 15 15 16 16 17 17 17 17 17 18 18 18 18 18 19 19 19 20
24 27 27 26 26 25 24 24 25 24 23 23 22 21 21 21 21 20 20 19 19 18 18 18 17 17 17 17 18 18 19 19 19 19 19 19 20 20 20 20 20 21 21
23 24 24 23 23 24 25 24 24 24 23 23 22 22 22 22 22 22 21 21 20 19 19 19 19 19 19 18 18 19 19 20 20 21 21 21 22 22 22 22 22 22 23
22 23 23 23 22 22 22 23 23 23 23 22 22 23 23 23 23 23 22 22 22 21 21 20 21 20 20 20 20 20 21 21 21 21 22 23 23 24 24 24 24 25 25
22 21 21 21 21 22 22 22 23 23 22 22 22 23 23 22 23 24 23 23 23 23 23 22 22 22 21 21 21 21 21 21 22 22 22 23 24 24 25 26 26 26 27
22 21 21 21 21 22 23 23 23 23 23 24 23 23 23 23 22 23 23 23 24 25 24 24 23 23 23 23 22 21 21 21 22 23 23 24 24 24 24 25 26 27 27
21 21 20 20 21 23 23 23 24 23 23 23 23 23 23 23 23 23 23 24 24 24 24 23 24 24 24 23 23 22 22 23 23 23 23 24 24 24 25 25 26 27 28
20 20 20 20 21 22 23 23 24 24 22 23 24 24 23 23 24 24 23 23 23 23 22 22 23 24 24 23 23 23 23 24 24 23 23 24 25 25 25 25 25 26 28
20 20 20 21 21 22 22 22 23 22 22 22 23 23 24 24 24 24 24 23 22 22 22 22 22 23 23 24 24 24 24 24 24 24 24 24 24 25 25 26 27 27 28
20 21 21 22 22 21 21 22 22 22 22 23 24 24 24 24 23 23 23 22 22 21 21 22 22 23 24 24 24 23 23 24 24 25 25 25 25 26 27 27 27 28 28
22 22 22 21 21 21 22 22 22 22 22 22 23 23 23 23 22 22 22 22 22 22 22 22 22 22 23 23 23 24 24 24 24 24 24 25 26 28 28 28 28 28 28
22 22 22 21 22 22 22 21 22 22 22 22 22 22 23 23 22 22 22 22 22 21 21 21 21 22 22 23 23 23 24 24 24 25 25 25 26 27 28 27 27 27 28
21 21 20 20 21 22 22 22 22 22 22 22 22 22 23 22 22 22 22 22 22 22 21 20 21 22 22 23 23 23 24 24 25 25 25 25 25 25 26 27 27 27 28
22 21 20 20 20 20 20 21 22 22 23 23 23 23 23 23 23 22 22 22 22 22 22 21 21 22 23 23 24 24 25 24 24 24 25 25 25 25 25 25 26 26 27
23 22 22 21 21 21 20 20 21 22 23 24 24 24 24 24 24 24 23 23 23 22 22 22 22 22 23 23 24 24 24 24 24 24 23 23 24 24 24 24 25 25 25
23 22 21 20 20 20 21 21 21 22 23 23 24 24 25 25 25 25 24 24 24 23 23 22 22 22 22 22 21 22 23 23 22 22 22 22 23 22 22 22 22 23 24
22 22 21 20 21 21 22 21 21 21 21 22 23 24 24 25 25 25 25 24 24 24 23 23 22 22 22 21 20 20 21 21 21 21 21 21 20 20 19 20 21 22 22
22 21 21 21 21 22 22 21 21 21 21 21 22 22 23 23 23 23 23 24 24 24 24 22 22 21 20 20 19 19 20 20 20 21 20 19 18 18 18 19 20 20 19
22 21 21 21 21 21 21 20 20 20 21 21 21 22 22 22 22 22 22 22 23 23 23 22 22 21 20 20 20 19 19 19 19 18 18 18 18 18 19 18 17 17 17
21 21 21 21 21 20 20 19 19 19 19 19 19 20 21 21 21 21 21 21 21 22 22 21 21 21 20 20 19 18 18 17 17 17 18 17 17 17 16 15 15 16 15
20 20 20 21 20 20 19 18 18 18 18 18 18 18 18 19 19 20 20 20 20 20 20 20 20 20 19 19 18 17 16 17 17 16 15 15 14 14 14 14 14 14 13
21 21 20 20 20 19 18 18 17 17 18 17 17 17 17 17 17 18 18 18 18 18 18 18 18 18 18 17 16 16 15 15 15 14 13 13 12 12 12 12 12 12 11
20 20 20 20 19 19 18 17 17 17 16 15 14 14 14 15 15 15 15 16 17 17 17 17 16 17 16 15 15 14 13 13 13 12 12 12 11 11 11 10 10 9 9
19 19 19 19 18 17 17 16 15 14 13 13 13 12 12 13 13 13 14 13 14 14 14 14 14 13 13 12 12 12 12 11 11 10 10 10 10 9 9 8 8 8 8
17 17 16 16 15 14 14 13 13 13 12 12 11 11 11 11 11 11 11 11 11 11 11 11 11 11 11 11 10 10 10 10 10 9 9 9 9 8 7 7 8 8 8
13 13 13 12 12 11 11 11 11 11 11 10 10 10 9 10 10 10 9 9 9 9 9 9 9 9 9 9 9 9 8 9 9 8 8 8 7 7 7 7 7 7 8
Wind_Direction
277 272 268 267 265 267 261 257 257 259 262 263 264 262 262 264 267 269 270 271 270 270 269 271 272 268 268 266 264 264 263 264 264 264 264 265 264 262 262 264 265 264 263
278 274 268 267 265 263 264 259 256 257 261 263 262 263 262 263 265 267 269 270 270 269 269 270 270 270 270 268 265 264 264 267 266 265 265 263 264 264 264 266 266 265 265
281 276 269 266 266 265 263 259 255 257 260 261 261 262 263 263 262 263 265 265 266 267 269 270 270 269 270 269 266 265 265 266 266 265 266 264 264 264 264 265 266 266 266
281 276 270 265 264 265 265 261 258 259 260 261 261 261 261 261 262 261 263 263 263 265 266 267 268 268 268 267 268 267 266 266 266 266 267 265 264 265 265 265 266 267 266
280 275 268 264 263 263 263 261 260 261 262 263 262 261 260 261 261 261 262 262 263 263 264 264 265 266 267 267 267 267 267 267 266 267 268 267 265 266 267 267 267 268 268
282 275 270 265 264 263 262 262 260 263 263 263 262 260 260 260 262 262 259 260 262 263 263 263 262 265 265 266 267 267 266 266 268 269 270 269 267 267 268 267 267 269 269
282 277 273 266 265 264 264 262 260 261 263 262 260 258 256 257 260 261 259 260 263 263 263 261 261 262 263 265 265 266 267 268 270 271 273 270 267 268 268 268 270 270 269
281 281 276 270 267 265 264 262 260 259 263 262 258 257 255 256 258 261 262 263 263 262 262 261 261 261 261 262 264 265 266 268 271 272 273 272 269 267 267 269 271 269 270
280 279 280 272 267 266 265 264 262 259 261 261 257 256 256 257 258 260 260 261 262 261 262 261 261 260 260 261 263 264 265 268 270 272 272 271 269 268 267 268 271 271 270
283 280 280 277 270 267 267 265 262 261 262 262 259 257 257 257 256 257 259 259 260 261 262 261 261 260 260 260 262 263 265 268 271 272 271 270 270 269 269 270 271 271 272
283 281 282 277 270 268 268 266 263 263 263 261 258 256 256 256 256 256 257 259 261 261 262 262 262 262 261 260 261 262 264 266 269 272 272 272 270 270 271 272 272 272 272
282 283 283 273 269 268 268 266 264 264 262 261 258 256 256 255 256 258 259 259 261 262 263 264 263 263 262 261 261 262 265 267 269 271 273 274 272 271 271 272 272 270 271
282 282 282 274 267 264 264 266 264 263 262 260 258 258 259 258 259 261 262 261 261 262 263 264 263 262 263 262 261 264 266 268 270 271 273 273 272 272 272 271 272 271 271
282 280 281 277 270 266 265 263 263 263 261 258 258 258 259 259 260 262 263 263 262 261 261 263 264 264 264 264 263 265 267 268 269 270 272 272 272 271 272 272 272 272 272
280 278 278 276 271 270 270 268 264 264 264 262 261 260 259 259 259 259 260 261 261 261 260 262 265 267 267 267 266 265 266 267 268 270 271 272 272 272 273 273 272 271 272
279 278 277 273 270 269 269 269 268 265 263 262 262 261 259 258 257 257 258 259 259 259 259 261 263 265 267 268 268 266 265 266 269 270 271 272 273 274 273 274 273 273 272
278 276 274 272 271 270 269 269 270 269 265 262 261 260 258 258 257 258 257 257 258 258 259 259 260 262 263 265 267 267 264 265 268 269 270 271 271 272 273 272 272 272 272
276 274 273 272 272 271 270 270 269 269 269 266 264 262 260 259 258 257 257 258 257 256 257 257 258 259 259 262 264 265 265 266 267 266 266 268 270 272 273 273 274 275 275
274 273 272 273 273 272 271 269 269 270 271 270 267 264 260 259 258 257 258 259 258 256 255 254 255 257 258 259 261 264 265 265 265 266 267 269 270 271 272 271 274 275 275
274 274 273 272 272 271 269 270 271 272 273 272 271 268 264 261 259 258 258 258 257 255 253 252 253 255 256 257 258 261 263 264 266 266 268 269 268 270 269 270 272 274 275
274 274 273 271 271 271 271 270 271 272 271 273 272 270 265 260 257 256 255 253 253 251 250 251 251 253 253 254 256 258 259 262 264 265 265 266 266 266 268 271 273 275 276
273 271 272 269 268 269 270 270 269 270 270 271 270 266 262 258 256 253 251 249 247 245 247 249 250 249 251 253 253 255 257 259 260 261 262 262 262 264 269 271 272 272 274
274 273 270 268 267 266 267 268 266 271 270 269 267 264 259 254 251 250 246 245 244 245 246 249 248 247 248 250 251 252 254 257 258 258 257 260 260 265 267 268 268 270 274
277 275 271 267 264 263 264 263 264 264 266 267 264 260 258 252 250 249 248 245 243 244 244 242 242 242 240 244 246 251 253 251 250 250 253 255 258 262 264 263 264 268 276
277 275 271 265 265 264 261 258 260 260 262 262 258 257 256 250 245 244 242 239 241 239 234 232 233 235 238 242 242 244 243 243 244 247 250 254 255 255 257 260 265 274 282
277 271 266 260 259 261 258 257 259 261 261 260 255 252 251 246 242 239 237 235 230 225 223 224 229 233 234 233 230 231 236 241 243 244 248 252 250 251 257 265 274 279 283
Height
5874 5874 5874 5874 5874 5874 5874 5875 5876 5876 5876 5876 5876 5876 5877 5878 5878 5878 5878 5878 5878 5878 5878 5877 5877 5877 5877 5876 5876 5877 5877 5877 5877 5877 5877 5877 5877 5877 5877 5878 5878 5878 5878
5869 5868 5868 5868 5869 5869 5869 5869 5870 5871 5871 5871 5871 5872 5872 5873 5873 5874 5874 5874 5873 5873 5874 5873 5873 5873 5873 5873 5873 5873 5873 5873 5873 5873 5873 5873 5873 5873 5874 5874 5873 5873 5873
5863 5862 5862 5863 5863 5863 5864 5864 5865 5866 5866 5866 5867 5867 5867 5867 5868 5869 5869 5869 5869 5869 5869 5869 5869 5869 5869 5869 5868 5869 5869 5869 5869 5869 5869 5869 5869 5869 5869 5869 5869 5869 5869
5858 5857 5857 5857 5858 5858 5859 5859 5860 5861 5861 5861 5861 5861 5862 5862 5862 5863 5863 5864 5864 5864 5864 5864 5864 5864 5864 5864 5864 5864 5864 5864 5864 5864 5864 5864 5864 5864 5864 5864 5864 5864 5863
5853 5852 5852 5852 5852 5853 5854 5854 5855 5855 5856 5856 5856 5856 5856 5857 5857 5857 5858 5858 5859 5859 5859 5859 5859 5859 5859 5859 5859 5859 5859 5859 5859 5859 5859 5858 5858 5858 5858 5858 5858 5858 5858
5847 5846 5846 5846 5846 5847 5847 5848 5849 5850 5850 5850 5850 5851 5851 5851 5851 5851 5852 5853 5853 5853 5854 5854 5854 5854 5854 5854 5854 5854 5854 5854 5854 5854 5853 5853 5853 5853 5852 5852 5852 5852 5851
5842 5841 5840 5840 5840 5841 5841 5842 5843 5844 5844 5845 5845 5845 5846 5846 5846 5846 5846 5847 5847 5847 5847 5848 5848 5848 5848 5849 5849 5849 5849 5848 5848 5848 5847 5847 5847 5847 5846 5846 5846 5845 5845
5836 5836 5835 5835 5835 5836 5836 5836 5837 5838 5838 5838 5839 5839 5840 5841 5841 5841 5841 5841 5841 5841 5842 5842 5842 5842 5842 5842 5843 5843 5843 5843 5842 5842 5841 5841 5841 5840 5840 5840 5839 5839 5838
5831 5831 5830 5830 5830 5830 5830 5830 5831 5831 5832 5832 5833 5834 5834 5835 5835 5836 5835 5835 5835 5835 5835 5836 5836 5836 5836 5836 5837 5837 5837 5837 5836 5836 5835 5835 5835 5834 5834 5833 5833 5833 5832
5827 5826 5824 5824 5824 5824 5824 5824 5825 5825 5825 5826 5826 5827 5828 5828 5829 5829 5829 5829 5829 5829 5829 5829 5829 5829 5829 5830 5830 5831 5831 5830 5830 5829 5829 5829 5828 5828 5827 5827 5826 5826 5825
5822 5820 5818 5817 5817 5817 5818 5818 5818 5818 5819 5819 5820 5820 5821 5821 5822 5823 5823 5823 5823 5823 5823 5823 5823 5823 5824 5824 5824 5824 5824 5824 5824 5823 5823 5822 5822 5821 5821 5820 5819 5818 5818
5816 5814 5811 5810 5811 5811 5811 5811 5811 5812 5812 5813 5813 5813 5814 5815 5815 5816 5816 5817 5817 5817 5817 5817 5817 5817 5817 5817 5818 5818 5818 5818 5818 5817 5816 5816 5815 5814 5814 5813 5812 5811 5810
5809 5808 5806 5804 5804 5804 5804 5804 5804 5805 5805 5806 5806 5807 5807 5808 5808 5809 5809 5810 5810 5810 5810 5811 5811 5811 5811 5811 5811 5811 5811 5811 5811 5810 5810 5809 5808 5807 5807 5806 5805 5804 5803
5803 5801 5800 5799 5798 5798 5798 5798 5798 5798 5799 5799 5799 5800 5800 5801 5801 5802 5802 5803 5803 5804 5804 5804 5804 5804 5804 5804 5805 5805 5805 5804 5804 5803 5803 5802 5801 5801 5800 5799 5798 5797 5796
5796 5795 5794 5793 5792 5791 5791 5791 5791 5791 5791 5791 5792 5792 5793 5793 5794 5794 5795 5796 5796 5797 5798 5798 5798 5798 5797 5798 5798 5798 5798 5797 5797 5797 5796 5796 5795 5794 5793 5792 5791 5790 5789
5789 5787 5787 5786 5785 5785 5785 5784 5784 5783 5784 5784 5784 5784 5785 5785 5786 5787 5787 5788 5788 5790 5790 5791 5791 5791 5791 5791 5791 5791 5791 5791 5791 5790 5790 5789 5788 5787 5787 5786 5785 5784 5783
5782 5781 5780 5779 5779 5778 5778 5777 5777 5776 5776 5776 5776 5776 5777 5777 5778 5778 5779 5780 5781 5782 5783 5784 5784 5784 5784 5785 5785 5785 5785 5785 5784 5784 5783 5783 5782 5781 5780 5779 5779 5778 5777
5775 5775 5773 5773 5772 5771 5770 5770 5770 5769 5769 5769 5769 5769 5769 5769 5770 5771 5772 5772 5773 5774 5776 5777 5777 5777 5778 5779 5779 5779 5779 5779 5779 5778 5778 5777 5776 5776 5775 5774 5773 5772 5771
5768 5768 5767 5766 5765 5764 5764 5763 5763 5763 5762 5762 5761 5761 5761 5762 5762 5763 5764 5765 5766 5767 5768 5770 5771 5771 5772 5773 5773 5773 5773 5773 5773 5773 5772 5772 5771 5771 5770 5769 5768 5768 5767
5761 5761 5760 5759 5759 5758 5757 5757 5757 5756 5755 5755 5754 5754 5753 5754 5755 5756 5757 5758 5759 5760 5762 5763 5764 5765 5766 5767 5767 5768 5768 5768 5768 5768 5767 5767 5766 5766 5765 5765 5764 5763 5762
5754 5754 5753 5753 5752 5751 5751 5750 5750 5750 5749 5748 5748 5747 5747 5747 5748 5749 5750 5751 5753 5754 5755 5757 5758 5759 5760 5761 5762 5762 5763 5763 5763 5762 5762 5762 5762 5762 5761 5761 5760 5759 5758
5748 5747 5746 5746 5745 5745 5745 5744 5744 5743 5743 5742 5741 5741 5741 5741 5742 5743 5744 5745 5747 5749 5750 5751 5753 5754 5755 5756 5756 5757 5758 5758 5758 5758 5758 5758 5758 5758 5757 5757 5756 5755 5754
5741 5740 5740 5739 5739 5739 5739 5738 5738 5737 5737 5736 5735 5735 5735 5736 5737 5738 5739 5740 5742 5743 5745 5747 5748 5749 5750 5751 5752 5753 5753 5754 5754 5754 5754 5754 5754 5754 5754 5754 5753 5752 5752
5734 5734 5733 5733 5733 5733 5733 5732 5732 5732 5732 5731 5731 5731 5731 5732 5733 5733 5735 5736 5737 5739 5740 5742 5743 5745 5746 5747 5748 5749 5749 5750 5751 5751 5751 5751 5751 5751 5751 5751 5751 5750 5749
5728 5728 5727 5727 5727 5727 5727 5727 5727 5728 5728 5727 5727 5727 5728 5728 5729 5730 5731 5733 5734 5735 5737 5738 5740 5741 5742 5744 5745 5746 5747 5747 5748 5749 5749 5749 5749 5749 5749 5749 5748 5748 5747
5723 5722 5722 5722 5722 5723 5723 5723 5723 5724 5724 5724 5724 5724 5725 5726 5726 5728 5729 5730 5731 5733 5734 5736 5737 5739 5740 5741 5742 5743 5744 5745 5746 5746 5747 5747 5747 5747 5747 5747 5746 5745 5744